Wind_Speed
5 5 5 4 3 3 2 2 2 2 1 1 1 2 3 4 4 5 5 6 6 6 7 8 7 8 9 10 9 9 10 10 11 11 11 10 11 11 11 11 11 11 11
5 5 4 3 3 3 3 3 2 2 2 2 2 3 3 3 4 4 5 6 7 7 7 8 8 10 10 10 9 10 9 10 10 11 11 12 11 11 12 12 12 12 12
5 5 4 3 3 3 3 3 3 2 2 2 3 3 3 3 3 4 5 5 6 7 7 9 9 10 10 10 10 10 10 10 11 11 11 11 12 12 13 12 12 12 12
5 5 5 5 4 4 4 4 3 3 3 3 3 3 3 4 4 4 5 6 6 7 8 8 9 10 10 10 10 11 11 12 12 12 12 11 11 12 12 13 13 14 14
6 5 5 5 5 4 4 4 4 4 4 3 3 3 3 4 4 5 6 6 7 8 9 9 10 10 10 10 11 12 12 13 13 13 13 13 13 13 12 13 14 15 15
6 6 5 5 5 5 4 4 4 4 4 4 4 4 4 4 5 5 6 7 7 8 9 9 9 9 10 11 11 12 13 13 13 13 14 15 15 14 14 14 14 15 15
6 6 6 5 5 5 5 5 5 4 4 4 4 5 5 6 6 6 6 7 7 8 9 9 9 9 10 11 11 13 13 14 14 14 14 14 15 15 14 15 15 16 16
6 6 6 5 5 5 5 5 6 5 4 4 5 5 5 6 7 7 7 7 8 8 9 9 9 10 11 12 12 12 12 12 13 13 14 14 14 14 14 15 15 15 15
6 5 5 5 5 5 5 5 6 6 4 4 5 6 6 6 7 8 8 8 9 9 9 10 10 11 11 12 12 13 13 12 13 13 13 14 14 14 14 14 14 15 15
5 5 5 5 5 5 6 6 6 6 6 5 5 6 7 8 8 8 9 9 10 10 10 11 11 12 12 12 13 13 13 13 13 13 13 13 13 14 14 15 15 16 16
4 5 5 5 5 5 5 5 6 7 6 6 6 7 8 9 8 9 9 10 11 11 11 11 12 12 12 12 12 13 13 13 13 13 13 13 13 13 13 14 15 16 16
4 4 5 5 5 5 5 6 6 7 7 7 7 8 8 9 9 10 10 11 11 11 11 12 12 12 13 13 13 13 13 13 13 13 13 13 12 13 14 14 15 15 15
4 4 4 4 4 5 6 7 7 7 7 8 8 9 9 9 10 11 12 12 13 13 13 14 14 14 14 14 14 13 13 13 13 13 14 13 13 14 14 15 15 15 15
3 3 4 4 5 5 6 6 7 7 8 8 9 9 10 10 11 12 13 14 14 14 14 15 15 15 15 15 14 14 14 14 14 14 14 14 14 15 15 15 15 15 16
3 3 4 4 5 6 6 7 8 8 8 9 9 10 11 11 12 13 14 14 15 15 15 15 16 16 16 16 16 15 15 15 15 15 15 15 15 15 14 14 14 15 15
3 4 4 5 6 6 7 7 8 9 9 10 11 12 12 13 13 14 14 15 15 15 16 17 17 18 17 16 16 16 16 16 16 15 15 15 15 15 15 15 15 15 15
4 4 5 6 7 8 8 9 9 10 10 11 12 13 13 14 14 15 15 16 16 16 17 17 18 18 17 17 17 17 17 17 17 17 16 16 17 17 16 17 16 16 16
5 5 6 7 8 9 10 10 11 12 12 13 13 13 14 15 16 16 17 17 17 17 18 18 18 18 18 18 18 18 18 18 18 17 18 18 18 18 18 18 18 18 18
6 7 7 8 9 10 11 12 12 13 13 13 14 15 15 16 16 17 18 18 19 19 19 19 19 19 19 19 19 19 19 19 19 19 19 19 19 19 20 19 19 19 19
8 9 9 9 10 11 12 13 13 14 14 14 15 16 16 17 18 18 18 19 19 20 20 20 21 21 20 21 20 20 20 21 20 20 20 20 20 20 20 19 20 20 21
10 10 10 11 11 12 12 13 13 14 15 15 16 17 18 19 19 19 20 20 20 21 21 22 22 22 22 22 22 22 22 22 21 21 21 21 21 21 21 21 21 21 22
12 12 12 13 13 13 14 14 15 16 16 17 18 18 19 20 20 21 21 21 22 22 22 23 23 23 23 23 23 23 22 22 22 21 21 21 21 21 22 23 23 23 23
14 14 14 14 15 15 15 16 17 18 18 19 19 20 20 21 21 22 22 23 24 24 24 23 23 23 23 23 23 23 23 23 23 22 22 22 22 22 22 23 24 24 24
15 15 16 16 16 17 17 18 18 19 20 21 21 22 22 23 23 24 24 25 25 25 25 25 25 24 24 24 24 24 24 24 24 23 24 23 23 23 23 23 24 24 25
17 18 19 18 20 20 20 20 20 20 21 22 23 24 24 25 25 25 25 25 26 26 27 26 26 25 25 25 25 26 25 25 24 24 24 24 24 24 24 25 25 26 25
19 20 20 21 22 21 22 23 23 23 23 24 25 25 25 25 26 26 26 26 27 27 27 27 27 26 26 26 26 26 26 25 25 25 25 25 25 25 25 25 26 27 27
Wind_Direction
102 106 101 103 95 98 101 95 82 58 38 10 327 305 299 294 292 292 282 278 283 292 296 294 292 289 290 288 281 281 279 274 273 271 271 268 263 260 258 260 261 262 265
93 94 92 96 97 84 77 77 68 46 25 355 338 338 331 311 295 291 292 287 286 296 295 293 291 288 291 291 283 287 279 280 275 274 272 269 264 263 261 262 264 265 266
86 80 78 83 87 75 73 63 46 38 21 354 339 338 338 341 321 303 300 298 295 298 299 298 294 295 293 287 283 281 283 283 283 281 278 272 269 267 264 264 264 265 266
85 82 72 70 72 64 53 39 28 20 7 353 344 338 336 333 323 312 307 300 300 301 305 305 299 298 293 289 284 284 288 283 283 280 278 275 274 272 266 266 265 263 265
83 75 69 65 65 58 46 32 21 17 15 9 4 354 342 333 327 319 315 313 310 307 305 300 296 295 294 293 291 290 292 288 286 282 277 278 276 272 270 267 266 264 263
82 75 71 70 63 54 46 35 23 24 23 20 13 3 353 349 345 337 328 320 317 314 313 306 300 299 301 303 302 297 294 288 288 287 282 279 277 272 273 272 270 266 268
82 76 72 68 63 55 47 38 30 23 15 7 359 353 352 345 341 335 330 326 325 321 321 320 315 311 309 306 304 301 294 288 287 286 283 283 282 277 274 270 267 264 265
83 78 71 63 56 50 38 27 18 11 8 7 358 349 342 336 332 329 328 332 332 330 327 326 321 317 313 309 306 305 300 293 290 286 284 283 281 278 276 272 270 264 262
75 70 59 52 46 40 32 22 12 7 360 355 350 343 342 337 329 333 331 331 331 328 324 323 320 316 313 309 306 303 302 298 293 291 287 282 280 279 277 275 273 269 265
68 58 49 42 36 32 29 24 17 13 7 360 348 338 337 336 332 331 331 327 324 323 321 319 319 317 315 313 310 306 301 299 297 292 287 285 283 282 279 276 276 271 268
57 50 44 37 33 28 25 19 14 11 8 1 351 344 338 333 330 331 331 327 324 320 317 317 319 319 319 316 314 309 303 300 297 294 291 288 284 282 282 280 277 273 270
55 51 42 35 28 23 17 11 5 360 358 355 350 344 340 335 336 335 332 328 326 324 322 321 322 320 319 318 316 313 309 302 300 298 295 291 288 285 286 284 280 276 272
53 45 35 27 22 17 11 6 4 1 355 353 352 348 344 338 337 334 333 331 328 326 324 325 322 319 317 317 317 314 311 306 302 299 296 293 293 290 287 286 281 277 273
43 36 21 12 10 5 1 360 358 355 351 348 346 343 339 339 338 334 332 332 330 327 326 325 323 320 315 314 313 313 310 305 300 300 299 297 295 293 289 286 283 281 278
24 17 7 2 359 356 352 350 350 347 344 342 338 337 335 333 332 331 330 330 328 325 324 324 322 319 315 313 310 310 308 306 303 302 301 299 297 294 291 290 289 287 283
8 1 350 346 343 343 342 340 338 336 334 332 331 332 332 331 330 328 328 327 326 324 322 319 318 315 313 312 310 310 307 305 304 303 302 301 299 296 293 295 292 289 288
341 342 336 331 331 331 331 330 329 327 327 326 326 327 327 328 329 329 327 325 324 323 322 319 318 317 314 310 308 307 307 305 303 301 298 297 298 296 292 292 290 288 287
325 328 327 328 328 326 325 326 324 323 324 323 324 326 327 328 328 326 324 322 322 322 321 319 316 314 313 310 306 305 304 304 303 300 296 296 295 292 290 290 287 286 285
317 320 320 320 322 323 323 322 322 323 323 323 325 326 326 325 326 325 323 322 321 320 319 317 316 313 312 309 307 305 303 301 301 300 297 294 293 291 289 288 287 286 285
307 312 313 314 317 319 321 322 322 321 320 320 320 321 322 323 324 323 322 322 320 320 319 317 315 313 311 308 307 305 303 301 299 298 297 295 293 292 291 289 287 287 285
294 299 303 307 310 313 317 318 319 320 319 318 317 317 318 319 320 320 320 321 321 320 319 317 315 312 310 307 306 305 304 303 299 298 297 295 292 291 291 289 287 287 287
288 291 296 300 303 306 307 309 312 314 316 315 314 315 315 316 316 317 317 318 319 318 317 315 313 311 311 309 307 307 306 304 301 297 296 295 291 291 291 289 287 287 287
287 289 292 296 298 300 303 305 308 310 311 312 312 312 312 314 313 314 315 315 315 315 315 314 314 312 311 310 309 307 305 305 303 300 298 296 294 293 292 290 288 287 288
285 287 289 290 294 297 299 301 304 307 308 309 310 310 311 313 313 314 314 314 313 314 314 313 313 312 310 308 308 308 305 301 300 299 297 298 295 293 293 292 291 289 287
287 288 291 292 297 296 296 299 300 303 305 307 308 309 309 311 312 312 313 313 313 314 315 313 312 311 310 309 308 306 305 302 299 297 296 296 296 294 292 292 291 290 289
287 290 291 292 294 294 295 297 298 299 301 303 306 307 307 308 310 311 311 311 311 312 313 312 311 311 311 310 309 307 305 302 300 298 296 294 294 295 292 291 292 291 289
Height
5882 5882 5882 5883 5883 5884 5884 5884 5884 5884 5884 5884 5884 5884 5884 5883 5883 5883 5883 5883 5882 5882 5881 5881 5880 5880 5879 5878 5878 5877 5877 5877 5877 5877 5877 5877 5878 5878 5878 5878 5879 5879 5879
5883 5883 5884 5884 5884 5884 5884 5884 5884 5884 5884 5884 5884 5883 5883 5883 5882 5882 5882 5882 5881 5881 5880 5880 5879 5878 5877 5876 5875 5875 5875 5875 5875 5875 5875 5875 5875 5875 5876 5876 5876 5876 5877
5884 5884 5884 5885 5885 5885 5885 5885 5885 5884 5884 5884 5884 5883 5883 5882 5882 5881 5881 5881 5880 5880 5879 5878 5877 5876 5875 5874 5874 5874 5873 5873 5873 5873 5872 5872 5872 5873 5873 5873 5873 5874 5874
5885 5885 5885 5885 5885 5885 5885 5885 5885 5884 5884 5883 5883 5882 5882 5882 5881 5881 5880 5879 5879 5878 5878 5877 5876 5875 5874 5873 5872 5871 5871 5870 5870 5870 5870 5870 5870 5870 5870 5870 5870 5870 5870
5886 5886 5886 5886 5886 5886 5885 5885 5885 5884 5884 5883 5882 5882 5882 5881 5881 5880 5880 5879 5878 5877 5876 5875 5875 5874 5873 5871 5870 5869 5869 5868 5867 5867 5867 5867 5867 5867 5866 5866 5866 5866 5867
5887 5887 5887 5887 5887 5886 5886 5886 5885 5884 5884 5883 5882 5882 5881 5881 5880 5879 5879 5878 5877 5876 5875 5874 5873 5872 5871 5870 5868 5867 5866 5866 5865 5864 5864 5864 5863 5863 5863 5863 5862 5863 5863
5888 5888 5888 5888 5887 5887 5887 5886 5885 5885 5884 5883 5883 5882 5881 5880 5879 5879 5877 5877 5876 5875 5874 5873 5872 5870 5869 5868 5867 5865 5864 5863 5862 5862 5861 5860 5859 5859 5859 5859 5859 5859 5859
5889 5889 5889 5889 5888 5887 5887 5886 5886 5885 5884 5883 5883 5882 5881 5881 5879 5878 5877 5876 5875 5874 5873 5872 5870 5869 5867 5866 5865 5863 5862 5860 5859 5858 5858 5857 5856 5855 5855 5855 5855 5855 5855
5890 5890 5890 5889 5889 5888 5887 5886 5885 5885 5884 5883 5882 5882 5881 5880 5878 5877 5876 5875 5874 5872 5871 5870 5868 5867 5866 5864 5862 5861 5859 5858 5857 5855 5854 5853 5853 5852 5852 5851 5851 5851 5851
5891 5891 5890 5890 5889 5888 5888 5887 5886 5885 5883 5883 5882 5881 5880 5879 5878 5876 5875 5874 5872 5871 5870 5868 5867 5865 5863 5862 5860 5858 5857 5855 5854 5853 5851 5850 5850 5849 5848 5848 5848 5847 5847
5892 5891 5891 5890 5890 5889 5888 5887 5886 5885 5883 5882 5881 5880 5879 5878 5877 5875 5874 5873 5871 5869 5868 5866 5864 5863 5861 5859 5857 5856 5854 5852 5851 5850 5848 5847 5846 5846 5845 5844 5844 5844 5843
5892 5892 5891 5891 5890 5889 5888 5887 5885 5884 5883 5882 5881 5879 5878 5877 5875 5874 5872 5871 5869 5867 5866 5864 5862 5860 5859 5857 5855 5853 5851 5849 5848 5846 5845 5844 5843 5842 5841 5841 5840 5840 5839
5892 5892 5891 5891 5890 5889 5888 5886 5885 5884 5883 5881 5880 5879 5877 5876 5875 5873 5871 5869 5867 5866 5864 5862 5860 5858 5856 5854 5852 5850 5848 5847 5845 5843 5842 5841 5840 5839 5838 5837 5836 5835 5835
5892 5892 5891 5890 5889 5888 5887 5886 5885 5884 5883 5881 5880 5878 5877 5875 5873 5872 5870 5868 5866 5864 5862 5860 5858 5855 5853 5851 5849 5847 5846 5844 5842 5840 5839 5838 5837 5835 5834 5833 5832 5831 5830
5892 5891 5891 5890 5889 5888 5887 5886 5885 5883 5882 5881 5879 5877 5876 5874 5872 5870 5868 5866 5864 5862 5860 5857 5855 5852 5850 5848 5846 5844 5842 5840 5839 5837 5835 5834 5833 5832 5830 5829 5828 5828 5827
5892 5891 5890 5890 5889 5888 5887 5885 5884 5883 5881 5879 5878 5876 5874 5872 5870 5868 5866 5864 5862 5860 5857 5855 5852 5850 5847 5845 5842 5840 5839 5837 5835 5833 5832 5830 5829 5828 5827 5825 5824 5824 5823
5891 5890 5890 5889 5888 5887 5886 5884 5883 5881 5880 5878 5876 5874 5872 5870 5868 5866 5863 5861 5859 5856 5854 5851 5849 5846 5844 5841 5839 5837 5835 5833 5831 5829 5828 5826 5825 5824 5822 5821 5820 5819 5818
5890 5889 5888 5888 5887 5885 5884 5883 5881 5880 5878 5876 5874 5872 5870 5868 5865 5863 5861 5858 5856 5853 5851 5848 5845 5843 5840 5838 5835 5833 5831 5829 5827 5825 5823 5822 5820 5819 5818 5816 5815 5814 5814
5889 5888 5887 5886 5885 5884 5882 5881 5879 5877 5875 5873 5871 5870 5867 5865 5863 5860 5858 5855 5852 5850 5847 5844 5841 5838 5836 5833 5831 5829 5826 5824 5822 5820 5818 5816 5815 5814 5812 5811 5810 5809 5808
5887 5886 5885 5884 5882 5881 5880 5878 5877 5875 5873 5871 5869 5867 5865 5862 5859 5857 5854 5851 5848 5846 5843 5840 5837 5834 5831 5829 5826 5824 5822 5819 5817 5815 5813 5811 5809 5808 5807 5805 5804 5803 5802
5884 5883 5882 5881 5880 5878 5877 5875 5874 5872 5870 5868 5866 5863 5861 5858 5856 5853 5850 5847 5844 5841 5838 5835 5832 5830 5827 5824 5821 5819 5816 5814 5811 5810 5807 5805 5804 5802 5800 5799 5798 5796 5795
5881 5880 5879 5878 5877 5875 5874 5872 5870 5868 5866 5864 5862 5859 5857 5854 5851 5848 5846 5843 5840 5837 5834 5831 5827 5824 5821 5819 5816 5813 5811 5808 5806 5804 5802 5800 5798 5796 5794 5792 5791 5790 5788
5877 5876 5875 5874 5873 5871 5870 5868 5866 5864 5862 5860 5857 5855 5852 5849 5846 5843 5841 5838 5834 5831 5829 5826 5822 5819 5816 5813 5810 5807 5805 5802 5800 5798 5795 5793 5791 5789 5787 5786 5784 5783 5781
5873 5871 5870 5869 5868 5867 5865 5863 5861 5859 5857 5855 5852 5850 5847 5844 5841 5838 5835 5832 5829 5826 5823 5820 5817 5813 5810 5807 5804 5801 5798 5796 5794 5791 5789 5787 5785 5783 5780 5778 5776 5775 5773
5869 5867 5866 5864 5863 5861 5860 5858 5856 5854 5852 5850 5847 5844 5841 5839 5836 5833 5830 5827 5823 5820 5817 5814 5811 5807 5804 5801 5798 5795 5792 5789 5787 5784 5782 5780 5778 5776 5774 5772 5769 5767 5766
5864 5862 5861 5860 5858 5856 5854 5852 5850 5848 5846 5844 5841 5838 5836 5833 5830 5827 5824 5821 5818 5814 5811 5807 5804 5801 5798 5794 5791 5788 5785 5782 5779 5777 5774 5772 5770 5768 5766 5764 5762 5759 5757